Alexandria, MN

2:44 AM CDT on September 19, 2019 (GMT -0500)
Chandler

Weather History for KAXN - August, 2019

Change the Weather History Date:

Saturday, August 24, 2019

  Actual Average Record
Temperature  
Mean Temperature 70 °F -  
Max Temperature 79 °F 77 °F 95 °F (1948)
Min Temperature 60 °F 58 °F 46 °F (1956)
Cooling Degree Days 4    
Growing Degree Days 20 (Base 50)    
Moisture  
Dew Point 56 °F    
Average Humidity 64    
Maximum Humidity 87    
Minimum Humidity 45    
Precipitation  
Precipitation 0.00 in - - ()
Sea Level Pressure  
Sea Level Pressure 30.14 in    
Wind  
Wind Speed 10 mph ()    
Max Wind Speed 23 mph    
Max Gust Speed 34 mph    
Visibility 10.0 miles    
Events      
Averages and records for this station are not official NWS values.
T = Trace of Precipitation, MM = Missing Value Source: Averaged Metar Reports

Daily Weather History Graph

Daily Weather History Graph

Search for Another Location

Airport or City:

Astronomy

Aug. 24, 2019 Rise Set
Actual Time 6:32 AM CDT 8:14 PM CDT
Civil Twilight 6:00 AM CDT 8:46 PM CDT
Nautical Twilight 5:22 AM CDT 9:24 PM CDT
Astronomical Twilight 4:40 AM CDT 10:06 PM CDT
Moon 12:19 AM CDT (8/24) 3:40 PM CDT (8/24)
Length of Visible Light 14h 45m
Length of Day
13h 42m
Last Quarter, 39% of the Moon is Illuminated
Aug 24
Last Quarter
Aug 30
New
Sep 5
First Quarter
Sep 13
Full
Sep 21
Last Quarter

Hourly Weather History & Observations

Time (CDT) Temp. Dew Point Humidity Pressure Visibility Wind Dir Wind Speed Gust Speed Precip Events Conditions
12:53 AM 63.0 °F 55.9 °F 78% 30.17 in 10.0 mi SE 8.1 mph - N/A   Clear
1:53 AM 64.0 °F 57.9 °F 80% 30.18 in 10.0 mi SE 9.2 mph - N/A   Clear
2:53 AM 63.0 °F 57.9 °F 84% 30.18 in 10.0 mi SE 6.9 mph - N/A   Clear
3:53 AM 61.0 °F 57.0 °F 87% 30.18 in 10.0 mi ESE 5.8 mph - N/A   Clear
4:53 AM 61.0 °F 55.9 °F 83% 30.18 in 10.0 mi SE 6.9 mph - N/A   Clear
5:53 AM 60.1 °F 55.9 °F 86% 30.18 in 10.0 mi SE 6.9 mph - N/A   Clear
6:53 AM 60.1 °F 55.0 °F 83% 30.20 in 10.0 mi ESE 6.9 mph - N/A   Clear
8:53 AM 66.0 °F 57.9 °F 75% 30.19 in 10.0 mi SSE 12.7 mph - N/A   Clear
9:53 AM 71.1 °F 57.0 °F 61% 30.18 in 10.0 mi SSE 16.1 mph - N/A   Clear
10:53 AM 73.9 °F 57.0 °F 55% 30.17 in 10.0 mi SSE 17.3 mph 26.5 mph N/A   Clear
11:53 AM 75.9 °F 55.9 °F 50% 30.17 in 10.0 mi South 18.4 mph - N/A   Partly Cloudy
12:53 PM 78.1 °F 55.9 °F 46% 30.14 in 10.0 mi SSE 23.0 mph 34.5 mph N/A   Partly Cloudy
1:53 PM 77.0 °F 55.9 °F 48% 30.13 in 10.0 mi SSE 23.0 mph 29.9 mph N/A   Partly Cloudy
2:53 PM 79.0 °F 57.0 °F 47% 30.11 in 10.0 mi SSE 19.6 mph 29.9 mph N/A   Mostly Cloudy
3:53 PM 79.0 °F 55.9 °F 45% 30.11 in 10.0 mi SSE 16.1 mph 27.6 mph N/A   Mostly Cloudy
4:53 PM 75.9 °F 54.0 °F 46% 30.11 in 10.0 mi SSE 18.4 mph 26.5 mph N/A   Partly Cloudy
5:53 PM 75.9 °F 55.0 °F 48% 30.11 in 10.0 mi SSE 19.6 mph 28.8 mph N/A   Partly Cloudy
6:53 PM 73.0 °F 54.0 °F 51% 30.11 in 10.0 mi SSE 13.8 mph - N/A   Scattered Clouds
7:53 PM 70.0 °F 54.0 °F 57% 30.10 in 10.0 mi SSE 11.5 mph - N/A   Scattered Clouds
8:53 PM 66.9 °F 55.0 °F 66% 30.10 in 10.0 mi SE 10.4 mph - N/A   Mostly Cloudy
9:53 PM 64.9 °F 53.1 °F 65% 30.09 in 10.0 mi SE 10.4 mph - N/A   Clear
10:53 PM 64.9 °F 53.1 °F 65% 30.07 in 10.0 mi SE 10.4 mph - N/A   Clear
11:53 PM 63.0 °F 53.1 °F 70% 30.06 in 10.0 mi SE 8.1 mph - N/A   Partly Cloudy